Flag for U.S.A. Weather past 2 weeks in Mansfield, Texas, U.S.A.

Now
48 °F

Fog.


Feels Like: 48 °F
Forecast: 44 / 58 °F
Wind: No wind

Location: Burleson-Rendon

Current Time: Dec 18, 2014 at 12:10:11 PM

Latest Report: Dec 18, 2014 at 11:50 AM


Visibility: 3 mi

Pressure: 30.17 "Hg

Humidity: 94%

Dew point: 46 °F

Location of MansfieldLocation

Historic Weather in Mansfield — Graph

°F

Mansfield temperature yesterday

Maximum temperature yesterday: 48 °F (at 12:52 PM)
Minimum temperature yesterday: 38 °F (at 12:15 AM)
Average temperature yesterday: 44 °F

Past Weeks' High & Low Weather Summary

 TemperatureHumidityPressure
High79 °F (Dec 5, 2:54 PM)100% (Dec 7, 7:48 AM)30.43 "Hg (Dec 7, 7:48 AM)
Low34 °F (Dec 8, 6:15 AM)30% (Dec 15, 3:49 PM)29.81 "Hg (Dec 14, 4:49 PM)
Average53 °F82%30.20 "Hg
* Reported Dec 3 10:50 AM — Dec 18 10:50 AM, Mansfield, Weather by CustomWeather, © 2014

Note: Actual official high and low records may vary slightly from our data, if they occured in-between our weather recording intervals... More about our weather records

Advertising

Mansfield weather history for previous 24 hours

 ConditionsComfort  
Time TempWeatherWind HumidityBarometerVisibility
10:50 AM
Dec 18
46 °FFog.No wind100%30.18 "Hg1 mi
9:48 AM46 °FFog.No wind93%30.17 "Hg1 mi
8:49 AM45 °FFog.No wind100%30.16 "Hg1 mi
7:51 AM45 °FFog.No wind100%30.15 "Hg1 mi
6:50 AM45 °FFog.No wind100%30.14 "Hg1 mi
6:35 AM44 °FFog.No wind97%30.14 "Hg2 mi
6:15 AM44 °FFog.3 mph97%30.12 "Hg1 mi
5:55 AM44 °FFog.No wind97%30.12 "Hg2 mi
5:35 AM44 °FFog.No wind97%30.11 "Hg2 mi
5:15 AM44 °FFog.3 mph96%30.11 "Hg2 mi
4:55 AM44 °FFog.No wind96%30.10 "Hg2 mi
4:15 AM44 °FFog.3 mph97%30.11 "Hg2 mi
3:55 AM44 °FFog.3 mph95%30.12 "Hg2 mi
3:35 AM44 °FFog.No wind95%30.12 "Hg2 mi
3:15 AM43 °FFog.5 mph96%30.12 "Hg2 mi
2:55 AM43 °FFog.3 mph96%30.13 "Hg2 mi
2:35 AM43 °FFog.5 mph96%30.13 "Hg3 mi
2:15 AM43 °FFog.5 mph96%30.13 "Hg2 mi
1:55 AM43 °FFog.3 mph95%30.13 "Hg4 mi
1:35 AM43 °FLow clouds.3 mph95%30.13 "Hg7 mi
1:15 AM43 °FFog.6 mph95%30.13 "Hg5 mi
12:55 AM43 °FFog.3 mph95%30.15 "Hg5 mi
12:35 AM43 °FFog.8 mph95%30.15 "Hg5 mi
12:15 AM43 °FFog.5 mph95%30.16 "Hg5 mi
11:55 PM
Dec 17
43 °FFog.6 mph95%30.16 "Hg3 mi
11:35 PM44 °FFog.6 mph94%30.17 "Hg3 mi
11:15 PM44 °FFog.6 mph95%30.17 "Hg5 mi
10:55 PM44 °FLight rain. Mostly cloudy.6 mph97%30.17 "Hg5 mi
10:35 PM44 °FHeavy rain. Overcast.6 mph97%30.17 "Hg4 mi
10:15 PM44 °FRain. Mostly cloudy.3 mph96%30.18 "Hg3 mi
9:15 PM44 °FLight rain. Mostly cloudy.3 mph95%30.17 "Hg5 mi
8:55 PM44 °FLight rain. Mostly cloudy.3 mph97%30.17 "Hg4 mi
8:35 PM44 °FDrizzle. Mostly cloudy.3 mph95%30.17 "Hg4 mi
8:15 PM44 °FLight rain. Mostly cloudy.5 mph95%30.16 "Hg4 mi
7:55 PM44 °FLight rain. Overcast.5 mph95%30.16 "Hg3 mi
7:35 PM44 °FRain. Mostly cloudy.3 mph94%30.15 "Hg3 mi
7:15 PM44 °FRain. Mostly cloudy.5 mph94%30.15 "Hg4 mi
6:52 PM45 °FFog.6 mph93%30.14 "Hg3 mi
5:51 PM45 °FFog.3 mph93%30.13 "Hg5 mi
4:50 PM45 °FLight rain. Overcast.5 mph93%30.13 "Hg3 mi
3:47 PM45 °FLight rain. Overcast.No wind81%30.11 "Hg7 mi
2:57 PM48 °FLight rain. Overcast.10 mph66%30.08 "Hg10 mi
1:50 PM48 °FOvercast.9 mph66%30.12 "Hg20 mi
12:52 PM48 °FOvercast.13 mph66%30.16 "Hg20 mi
Weather by CustomWeather, © 2014

See weather overviewHow to use our weather pages